Falfurrias, TX

6:46 AM CST on February 26, 2017 (GMT -0600)
Falfurrias

Weather History for KBKS - May, 2013

Change the Weather History Date:

Thursday, May 2, 2013

  Actual Average (KNQI) Record (KNQI)
Temperature  
Mean Temperature 70 °F -  
Max Temperature 80 °F 85 °F 100 °F (2002)
Min Temperature 61 °F 67 °F 55 °F (2005)
Cooling Degree Days 6    
Growing Degree Days 20 (Base 50)    
Moisture  
Dew Point 59 °F    
Average Humidity 67    
Maximum Humidity 94    
Minimum Humidity 44    
Precipitation  
Precipitation 0.00 in - - ()
Sea Level Pressure  
Sea Level Pressure 30.04 in    
Wind  
Wind Speed 9 mph (North)    
Max Wind Speed 20 mph    
Max Gust Speed 31 mph    
Visibility 9 miles    
Events      
Averages and records for this station are not official NWS values.
T = Trace of Precipitation, MM = Missing Value Source: NWS Daily Summary

Daily Weather History Graph

Daily Weather History Graph

Search for Another Location

Airport or City:

Trip Planner

Search our weather history database for the weather conditions in past years. The results will help you decide how hot, cold, wet, or windy it might be!

Date:

Astronomy

May. 02, 2013 Rise Set
Actual Time 6:52 AM CDT 8:06 PM CDT
Civil Twilight 6:28 AM CDT 8:31 PM CDT
Nautical Twilight 5:58 AM CDT 9:00 PM CDT
Astronomical Twilight 5:28 AM CDT 9:30 PM CDT
Moon 2:01 AM CDT (5/2) 1:34 PM CDT (5/2)
Length of Visible Light 14h 03m
Length of Day
13h 13m
Waning Gibbous, 47% of the Moon is Illuminated
May 2
Waning Gibbous
May 9
New
May 17
First Quarter
May 24
Full
May 31
Last Quarter

Hourly Weather History & Observations

Time (CDT) Temp. Heat Index Dew Point Humidity Pressure Visibility Wind Dir Wind Speed Gust Speed Precip Events Conditions
12:15 AM 71.6 °F - 68.5 °F 90% 29.88 in 7.0 mi East 6.9 mph - N/A   Mostly Cloudy
12:35 AM 71.6 °F - 68.5 °F 90% 29.88 in 7.0 mi East 6.9 mph - N/A   Scattered Clouds
12:55 AM 71.6 °F - 68.5 °F 90% 29.88 in 7.0 mi ESE 5.8 mph - N/A   Mostly Cloudy
1:15 AM 71.6 °F - 68.4 °F 89% 29.88 in 7.0 mi ESE 5.8 mph - N/A   Overcast
1:35 AM 71.6 °F - 68.0 °F 88% 29.88 in 7.0 mi ESE 4.6 mph - N/A   Mostly Cloudy
1:55 AM 70.9 °F - 68.0 °F 91% 29.87 in 7.0 mi ESE 3.5 mph - N/A   Scattered Clouds
2:15 AM 70.7 °F - 68.0 °F 91% 29.89 in 7.0 mi NE 3.5 mph - N/A   Mostly Cloudy
2:35 AM 70.9 °F - 68.2 °F 91% 29.89 in 7.0 mi ENE 5.8 mph - N/A   Overcast
2:55 AM 70.7 °F - 68.0 °F 91% 29.91 in 7.0 mi NNE 8.1 mph - N/A   Overcast
3:15 AM 70.7 °F - 68.0 °F 91% 29.92 in 7.0 mi NNE 5.8 mph - N/A   Overcast
3:55 AM 70.7 °F - 67.6 °F 90% 29.92 in 7.0 mi Calm Calm - N/A   Mostly Cloudy
4:15 AM 70.2 °F - 67.5 °F 91% 29.92 in 7.0 mi Calm Calm - N/A   Clear
4:35 AM 69.8 °F - 67.3 °F 92% 29.94 in 7.0 mi NNE 4.6 mph - N/A   Scattered Clouds
4:55 AM 70.0 °F - 67.3 °F 91% 29.95 in 7.0 mi NNE 9.2 mph 17.3 mph N/A   Overcast
5:15 AM 69.8 °F - 67.1 °F 91% 29.95 in 7.0 mi ENE 6.9 mph - N/A   Scattered Clouds
5:35 AM 69.3 °F - 66.2 °F 90% 29.93 in 7.0 mi East 6.9 mph - N/A   Clear
5:55 AM 69.3 °F - 65.8 °F 89% 29.92 in 10.0 mi SE 4.6 mph - N/A   Clear
6:15 AM 68.9 °F - 65.8 °F 90% 29.92 in 7.0 mi South 3.5 mph - N/A   Clear
6:35 AM 68.2 °F - 65.7 °F 92% 29.92 in 7.0 mi South 4.6 mph - N/A   Clear
6:55 AM 67.6 °F - 65.5 °F 93% 29.92 in 7.0 mi South 8.1 mph - N/A   Clear
7:15 AM 67.5 °F - 65.7 °F 94% 29.92 in 4.0 mi South 5.8 mph - N/A   Clear
7:35 AM 67.5 °F - 65.7 °F 94% 29.93 in 5.0 mi South 4.6 mph - N/A   Clear
7:55 AM 68.0 °F - 65.7 °F 92% 29.95 in 5.0 mi WSW 3.5 mph - N/A   Clear
8:15 AM 69.1 °F - 66.2 °F 91% 29.95 in 7.0 mi SSW 3.5 mph - N/A   Clear
8:35 AM 70.5 °F - 66.4 °F 87% 29.94 in 7.0 mi South 6.9 mph - N/A   Clear
8:55 AM 72.1 °F - 66.6 °F 83% 29.92 in 10.0 mi South 10.4 mph - N/A   Clear
9:15 AM 74.1 °F - 66.6 °F 77% 29.94 in 10.0 mi South 4.6 mph - N/A   Clear
9:35 AM 76.1 °F - 66.6 °F 72% 29.98 in 10.0 mi North 4.6 mph - N/A   Clear
9:55 AM 77.0 °F - 66.6 °F 70% 30.00 in 10.0 mi NNW 5.8 mph - N/A   Clear
10:15 AM 77.4 °F - 67.1 °F 71% 30.03 in 10.0 mi North 12.7 mph - N/A   Scattered Clouds
10:35 AM 77.2 °F - 66.7 °F 70% 30.04 in 10.0 mi North 15.0 mph 20.7 mph N/A   Scattered Clouds
10:55 AM 76.5 °F - 64.6 °F 67% 30.06 in 10.0 mi North 17.3 mph 27.6 mph N/A   Scattered Clouds
11:15 AM 76.1 °F - 60.1 °F 57% 30.07 in 10.0 mi North 11.5 mph 21.9 mph N/A   Mostly Cloudy
11:55 AM 79.2 °F - 56.1 °F 45% 30.07 in 10.0 mi North 13.8 mph 21.9 mph N/A   Overcast
12:15 PM 80.6 °F 80.7 °F 56.7 °F 44% 30.07 in 10.0 mi NNW 12.7 mph 20.7 mph N/A   Scattered Clouds
12:35 PM 79.9 °F - 56.1 °F 44% 30.07 in 10.0 mi NNW 17.3 mph 23.0 mph N/A   Clear
12:55 PM 79.7 °F - 56.8 °F 45% 30.06 in 10.0 mi North 11.5 mph 20.7 mph N/A   Clear
1:15 PM 79.5 °F - 56.7 °F 45% 30.06 in 10.0 mi North 18.4 mph 26.5 mph N/A   Clear
1:35 PM 80.2 °F 80.7 °F 58.5 °F 47% 30.06 in 10.0 mi North 17.3 mph 24.2 mph N/A   Clear
1:55 PM 79.0 °F - 57.6 °F 48% 30.06 in 10.0 mi North 19.6 mph 27.6 mph N/A   Clear
2:15 PM 79.0 °F - 57.6 °F 48% 30.06 in 10.0 mi NNW 16.1 mph 27.6 mph N/A   Clear
2:35 PM 78.8 °F - 57.0 °F 47% 30.07 in 10.0 mi North 16.1 mph 31.1 mph N/A   Clear
2:55 PM 78.6 °F - 56.1 °F 46% 30.07 in 10.0 mi NNW 19.6 mph 25.3 mph N/A   Clear
3:15 PM 77.7 °F - 55.4 °F 46% 30.07 in 10.0 mi North 19.6 mph 27.6 mph N/A   Clear
3:35 PM 76.5 °F - 54.5 °F 46% 30.09 in 10.0 mi North 18.4 mph 28.8 mph N/A   Clear
3:55 PM 76.1 °F - 54.1 °F 46% 30.08 in 10.0 mi NNW 19.6 mph 27.6 mph N/A   Clear
4:15 PM 74.8 °F - 53.6 °F 47% 30.09 in 10.0 mi NNW 15.0 mph 24.2 mph N/A   Mostly Cloudy
4:35 PM 74.7 °F - 53.2 °F 47% 30.09 in 10.0 mi North 17.3 mph 24.2 mph N/A   Mostly Cloudy
4:55 PM 73.0 °F - 53.1 °F 49% 30.09 in 10.0 mi North 18.4 mph 29.9 mph N/A   Scattered Clouds
5:15 PM 74.5 °F - 52.9 °F 47% 30.10 in 10.0 mi North 17.3 mph 25.3 mph N/A   Scattered Clouds
5:35 PM 72.9 °F - 53.1 °F 50% 30.10 in 10.0 mi North 16.1 mph 26.5 mph N/A   Scattered Clouds
5:55 PM 72.9 °F - 52.5 °F 49% 30.10 in 10.0 mi North 18.4 mph 27.6 mph N/A   Clear
6:15 PM 72.3 °F - 52.2 °F 49% 30.11 in 10.0 mi North 18.4 mph 26.5 mph N/A   Scattered Clouds
6:35 PM 72.1 °F - 52.3 °F 50% 30.11 in 10.0 mi North 17.3 mph 24.2 mph N/A   Overcast
6:55 PM 72.1 °F - 52.3 °F 50% 30.11 in 10.0 mi NNW 16.1 mph 21.9 mph N/A   Mostly Cloudy
7:35 PM 71.8 °F - 52.3 °F 50% 30.13 in 10.0 mi NNW 17.3 mph 24.2 mph N/A   Mostly Cloudy
7:55 PM 70.7 °F - 52.2 °F 52% 30.14 in 10.0 mi North 15.0 mph 24.2 mph N/A   Mostly Cloudy
8:15 PM 70.2 °F - 52.0 °F 52% 30.16 in 10.0 mi North 12.7 mph 20.7 mph N/A   Mostly Cloudy
8:35 PM 69.1 °F - 50.0 °F 51% 30.17 in 10.0 mi NNW 17.3 mph 23.0 mph N/A   Overcast
8:55 PM 67.6 °F - 50.0 °F 53% 30.19 in 10.0 mi NNW 10.4 mph 18.4 mph N/A   Overcast
9:15 PM 66.6 °F - 50.0 °F 55% 30.20 in 10.0 mi North 13.8 mph 23.0 mph N/A   Mostly Cloudy
9:35 PM 66.2 °F - 49.5 °F 55% 30.22 in 10.0 mi North 13.8 mph 24.2 mph N/A   Overcast
9:55 PM 65.5 °F - 48.6 °F 54% 30.24 in 10.0 mi NNW 15.0 mph 24.2 mph N/A   Overcast
10:15 PM 64.9 °F - 47.5 °F 53% 30.25 in 10.0 mi NNW 13.8 mph 25.3 mph N/A   Overcast
10:35 PM 64.4 °F - 47.3 °F 54% 30.26 in 10.0 mi North 16.1 mph 24.2 mph N/A   Overcast
10:55 PM 63.5 °F - 46.4 °F 54% 30.27 in 10.0 mi North 15.0 mph 24.2 mph N/A   Overcast
11:15 PM 62.8 °F - 45.9 °F 54% 30.28 in 10.0 mi NNW 13.8 mph 21.9 mph N/A   Overcast
11:35 PM 61.9 °F - 44.8 °F 53% 30.29 in 10.0 mi NNW 18.4 mph 26.5 mph N/A   Overcast
11:55 PM 61.5 °F - 44.6 °F 54% 30.29 in 10.0 mi NNW 17.3 mph 25.3 mph N/A   Overcast